This is the latest recevied weather packets stored in our database for station/object N1IJV-10. If no packets are shown the sender has not sent any weather packets the latest 10 day(s).
| Time | Temp. | Humidity | Pressure | Rain* | Wind** | Luminosity | Snow |
|---|---|---|---|---|---|---|---|
| 1778069906 | 6.11° C | 77% | 1012.5 hPa | 0 mm | - | 56 W/m² | - |
| 1778069603 | 5.56° C | 79% | 1012.3 hPa | 0 mm | - | 57 W/m² | - |
| 1778069300 | 5.56° C | 81% | 1012.3 hPa | 0 mm | - | 55 W/m² | - |
| 1778068998 | 5.56° C | 82% | 1012.3 hPa | 0 mm | - | 51 W/m² | - |
| 1778068695 | 5° C | 84% | 1012.2 hPa | 0 mm | - | 43 W/m² | - |
| 1778068393 | 5° C | 84% | 1011.9 hPa | 0 mm | - | 46 W/m² | - |
| 1778068091 | 4.44° C | 85% | 1012.2 hPa | 0 mm | - | 44 W/m² | - |
| 1778067788 | 3.89° C | 87% | 1011.9 hPa | 0 mm | - | 39 W/m² | - |
| 1778067487 | 3.89° C | 88% | 1012.1 hPa | 0 mm | - | 35 W/m² | - |
| 1778067184 | 3.33° C | 89% | 1011.8 hPa | 0 mm | - | 30 W/m² | - |
| 1778066880 | 3.33° C | 89% | 1011.8 hPa | 0 mm | - | 26 W/m² | - |
| 1778066578 | 2.78° C | 89% | 1011.9 hPa | 0 mm | - | 24 W/m² | - |
| 1778066275 | 2.78° C | 89% | 1012.2 hPa | 0 mm | - | 20 W/m² | - |
| 1778065973 | 2.78° C | 89% | 1011.7 hPa | 0 mm | - | 17 W/m² | - |
| 1778065670 | 2.78° C | 88% | 1011.7 hPa | 0 mm | - | 13 W/m² | - |
| 1778065367 | 2.78° C | 88% | 1012.1 hPa | 0 mm | - | 10 W/m² | - |
| 1778065064 | 2.78° C | 87% | 1011.9 hPa | 0 mm | - | 6 W/m² | - |
| 1778064761 | 2.78° C | 87% | 1011.8 hPa | 0 mm | - | 3 W/m² | - |
| 1778064458 | 2.78° C | 87% | 1011.8 hPa | 0 mm | - | 1 W/m² | - |
| 1778064156 | 2.78° C | 87% | 1011.6 hPa | 0 mm | - | 0 W/m² | - |
| 1778063853 | 2.78° C | 87% | 1011.7 hPa | 0 mm | - | 0 W/m² | - |
| 1778063550 | 2.78° C | 86% | 1011.3 hPa | 0 mm | - | 0 W/m² | - |
| 1778063248 | 3.33° C | 86% | 1011.2 hPa | 0 mm | - | 0 W/m² | - |
| 1778062946 | 3.33° C | 86% | 1011 hPa | 0 mm | - | 0 W/m² | - |
| 1778062642 | 3.33° C | 85% | 1011 hPa | 0 mm | - | 0 W/m² | - |
* Rain latest hour (hover to see other rain measurements)
** Current wind speed in m/s (hover to see current wind gust speed)